Location: Unspecified
(0.0000°N, 0.0000°E)
Time: 13:44:05
(UTC+00:00)

Vanguard 3 - Pass Details

Date: 20 November 2019
Orbit: 508 x 3263 km, 33.3° (Epoch: 08 December)

Event Time Altitude Azimuth Distance (km) Brightness Sun altitude
Rises 20:12:25 0° 316° (NW) 5,937 11.8 -34.2°
Reaches altitude 10° 20:17:27 10° 324° (NW) 4,442 11.0 -35.4°
Enters shadow 20:23:06 25° 343° (NNW) 2,800 9.7 -36.6°
Maximum altitude 20:27:15 35° 25° (NNE) 1,989 - -37.6°
Drops below altitude 10° 20:33:10 10° 90° (E) 2,663 - -38.9°
Sets 20:35:26 0° 100° (E) 3,353 - -39.4°
